| time (UTC) | temp F | wind direction | speed MPH | gust MPH | rain 1hr in | rain 24hr in | rain mn in | humidity % | barometer mb |
| 20260506211145 | 41 | 107 | 2.0 | 3.0 | 0.00 | 0.00 | 0.00 | 82 | 1013.7 |
| 20260506210907 | 41 | 107 | 1.0 | 3.0 | 0.00 | 0.00 | 0.00 | 82 | 1013.8 |
| 20260506210144 | 42 | 107 | 1.0 | 3.0 | 0.00 | 0.00 | 0.00 | 81 | 1013.9 |
| 20260506205913 | 42 | 107 | 2.0 | 3.0 | 0.00 | 0.00 | 0.00 | 81 | 1013.9 |
| 20260506205142 | 42 | 107 | 1.0 | 3.0 | 0.00 | 0.00 | 0.00 | 81 | 1013.8 |
| 20260506204642 | 42 | 107 | 2.0 | 4.0 | 0.00 | 0.00 | 0.00 | 80 | 1013.8 |
| 20260506204143 | 43 | 107 | 3.0 | 4.0 | 0.00 | 0.00 | 0.00 | 80 | 1013.8 |
| 20260506203641 | 43 | 107 | 2.0 | 5.0 | 0.00 | 0.00 | 0.00 | 79 | 1013.7 |
| 20260506203138 | 43 | 107 | 2.0 | 5.0 | 0.00 | 0.00 | 0.00 | 79 | 1013.8 |
| 20260506202638 | 43 | 107 | 2.0 | 5.0 | 0.00 | 0.00 | 0.00 | 79 | 1013.8 |
| 20260506202138 | 44 | 109 | 3.0 | 10.0 | 0.00 | 0.00 | 0.00 | 79 | 1013.6 |
| 20260506201638 | 44 | 110 | 3.0 | 10.0 | 0.00 | 0.00 | 0.00 | 79 | 1013.6 |
| 20260506201136 | 44 | 117 | 5.0 | 7.0 | 0.00 | 0.00 | 0.00 | 79 | 1013.4 |
| 20260506200637 | 44 | 117 | 4.0 | 9.0 | 0.00 | 0.00 | 0.00 | 78 | 1013.3 |
| 20260506200135 | 45 | 111 | 5.0 | 9.0 | 0.00 | 0.00 | 0.00 | 78 | 1013.4 |
| 20260506195634 | 45 | 123 | 5.0 | 7.0 | 0.00 | 0.00 | 0.00 | 78 | 1013.4 |
| 20260506195134 | 45 | 123 | 5.0 | 10.0 | 0.00 | 0.00 | 0.00 | 77 | 1013.4 |
| 20260506194634 | 45 | 133 | 5.0 | 10.0 | 0.00 | 0.00 | 0.00 | 77 | 1013.3 |
| 20260506194133 | 45 | 123 | 6.0 | 10.0 | 0.00 | 0.00 | 0.00 | 77 | 1013.3 |
| 20260506193858 | 46 | 86 | 4.0 | 10.0 | 0.00 | 0.00 | 0.00 | 77 | 1013.3 |
| 20260506193135 | 46 | 87 | 6.0 | 12.0 | 0.00 | 0.00 | 0.00 | 76 | 1013.3 |
| 20260506192634 | 46 | 104 | 4.0 | 12.0 | 0.00 | 0.00 | 0.00 | 75 | 1013.2 |
| 20260506192134 | 47 | 96 | 5.0 | 12.0 | 0.00 | 0.00 | 0.00 | 75 | 1013.2 |
| 20260506191634 | 47 | 65 | 7.0 | 12.0 | 0.00 | 0.00 | 0.00 | 75 | 1013.1 |
| 20260506191135 | 47 | 100 | 5.0 | 10.0 | 0.00 | 0.00 | 0.00 | 75 | 1012.9 |
| 20260506190633 | 48 | 113 | 5.0 | 11.0 | 0.00 | 0.00 | 0.00 | 74 | 1012.9 |
| 20260506190134 | 48 | 92 | 7.0 | 11.0 | 0.00 | 0.00 | 0.00 | 74 | 1013.0 |
| 20260506185634 | 48 | 76 | 6.0 | 11.0 | 0.00 | 0.00 | 0.00 | 74 | 1012.9 |
| 20260506185135 | 48 | 113 | 6.0 | 11.0 | 0.00 | 0.00 | 0.00 | 74 | 1013.0 |
| 20260506184633 | 48 | 116 | 7.0 | 10.0 | 0.00 | 0.00 | 0.00 | 74 | 1013.0 |
| 20260506184133 | 48 | 83 | 5.0 | 10.0 | 0.00 | 0.00 | 0.00 | 73 | 1013.0 |
| 20260506183634 | 48 | 133 | 6.0 | 10.0 | 0.00 | 0.00 | 0.00 | 72 | 1013.0 |
| 20260506183134 | 48 | 90 | 6.0 | 9.0 | 0.00 | 0.00 | 0.00 | 71 | 1013.0 |
| 20260506182634 | 49 | 109 | 3.0 | 9.0 | 0.00 | 0.00 | 0.00 | 71 | 1012.9 |
| 20260506182133 | 49 | 83 | 4.0 | 7.0 | 0.00 | 0.00 | 0.00 | 70 | 1012.8 |
| 20260506181634 | 49 | 120 | 3.0 | 5.0 | 0.00 | 0.00 | 0.00 | 71 | 1012.9 |
| 20260506181134 | 49 | 121 | 4.0 | 5.0 | 0.00 | 0.00 | 0.00 | 70 | 1012.8 |
| 20260506180634 | 49 | 118 | 3.0 | 5.0 | 0.00 | 0.00 | 0.00 | 71 | 1012.8 |
| 20260506180135 | 49 | 120 | 3.0 | 5.0 | 0.00 | 0.00 | 0.00 | 70 | 1012.8 |
| 20260506175634 | 49 | 120 | 2.0 | 6.0 | 0.00 | 0.00 | 0.00 | 69 | 1012.9 |
| 20260506175134 | 49 | 120 | 4.0 | 6.0 | 0.00 | 0.00 | 0.00 | 70 | 1012.9 |
| 20260506174634 | 49 | 121 | 4.0 | 6.0 | 0.00 | 0.00 | 0.00 | 70 | 1012.8 |
| 20260506174134 | 49 | 107 | 2.0 | 7.0 | 0.00 | 0.00 | 0.00 | 70 | 1012.7 |
| 20260506173634 | 49 | 99 | 4.0 | 7.0 | 0.00 | 0.00 | 0.00 | 69 | 1012.7 |
| 20260506173135 | 50 | 93 | 2.0 | 4.0 | 0.00 | 0.00 | 0.00 | 71 | 1012.7 |
| 20260506172634 | 49 | 89 | 2.0 | 7.0 | 0.00 | 0.00 | 0.00 | 70 | 1012.7 |
| 20260506172354 | 49 | 86 | 3.0 | 7.0 | 0.00 | 0.00 | 0.00 | 69 | 1012.7 |
| 20260506171857 | 49 | 89 | 4.0 | 6.0 | 0.00 | 0.00 | 0.00 | 71 | 1012.7 |
| 20260506171132 | 49 | 121 | 3.0 | 6.0 | 0.00 | 0.00 | 0.00 | 71 | 1012.8 |
| 20260506170643 | 49 | 121 | 3.0 | 6.0 | 0.00 | 0.00 | 0.00 | 70 | 1012.8 |
| 20260506170130 | 49 | 97 | 4.0 | 6.0 | 0.00 | 0.00 | 0.00 | 70 | 1012.9 |
| 20260506165629 | 49 | 94 | 5.0 | 6.0 | 0.00 | 0.00 | 0.00 | 70 | 1012.8 |
| 20260506165129 | 49 | 109 | 3.0 | 6.0 | 0.00 | 0.00 | 0.00 | 70 | 1012.7 |
| 20260506164628 | 49 | 110 | 4.0 | 9.0 | 0.00 | 0.00 | 0.00 | 71 | 1012.8 |
| 20260506164129 | 49 | 92 | 6.0 | 9.0 | 0.00 | 0.00 | 0.00 | 70 | 1012.8 |
| 20260506163627 | 49 | 63 | 5.0 | 7.0 | 0.00 | 0.00 | 0.00 | 71 | 1012.8 |
| 20260506163345 | 49 | 92 | 4.0 | 9.0 | 0.00 | 0.00 | 0.00 | 71 | 1012.9 |
| 20260506162627 | 49 | 65 | 5.0 | 9.0 | 0.00 | 0.00 | 0.00 | 70 | 1012.9 |
| 20260506162126 | 49 | 106 | 4.0 | 10.0 | 0.00 | 0.00 | 0.00 | 70 | 1012.9 |
| 20260506161625 | 49 | 79 | 6.0 | 10.0 | 0.00 | 0.00 | 0.00 | 70 | 1012.8 |
| 20260506161125 | 49 | 100 | 5.0 | 7.0 | 0.00 | 0.00 | 0.00 | 70 | 1012.9 |
| 20260506160625 | 49 | 79 | 4.0 | 10.0 | 0.00 | 0.00 | 0.00 | 71 | 1012.8 |
| 20260506160126 | 49 | 94 | 5.0 | 10.0 | 0.00 | 0.00 | 0.00 | 70 | 1012.9 |
| 20260506155850 | 49 | 86 | 4.0 | 12.0 | 0.00 | 0.00 | 0.00 | 71 | 1012.8 |
| 20260506155122 | 49 | 68 | 7.0 | 12.0 | 0.00 | 0.00 | 0.00 | 69 | 1012.9 |
| 20260506154620 | 49 | 56 | 6.0 | 10.0 | 0.00 | 0.00 | 0.00 | 70 | 1012.8 |
| 20260506154121 | 49 | 102 | 6.0 | 12.0 | 0.00 | 0.00 | 0.00 | 70 | 1012.8 |
| 20260506153621 | 50 | 28 | 7.0 | 12.0 | 0.00 | 0.00 | 0.00 | 68 | 1012.8 |
| 20260506153347 | 50 | 89 | 6.0 | 12.0 | 0.00 | 0.00 | 0.00 | 68 | 1012.7 |
| 20260506152620 | 50 | 128 | 5.0 | 12.0 | 0.00 | 0.00 | 0.00 | 67 | 1012.8 |
| 20260506152117 | 50 | 96 | 6.0 | 12.0 | 0.00 | 0.00 | 0.00 | 66 | 1012.8 |
| 20260506151616 | 51 | 87 | 7.0 | 11.0 | 0.00 | 0.00 | 0.00 | 66 | 1012.8 |
| 20260506151117 | 51 | 80 | 5.0 | 10.0 | 0.00 | 0.00 | 0.00 | 66 | 1012.8 |
| 20260506150617 | 51 | 125 | 6.0 | 11.0 | 0.00 | 0.00 | 0.00 | 65 | 1012.8 |
| 20260506150116 | 51 | 125 | 6.0 | 11.0 | 0.00 | 0.00 | 0.00 | 64 | 1012.8 |
| 20260506145614 | 51 | 131 | 7.0 | 11.0 | 0.00 | 0.00 | 0.00 | 64 | 1012.8 |
| 20260506145115 | 51 | 134 | 4.0 | 7.0 | 0.00 | 0.00 | 0.00 | 62 | 1012.8 |
| 20260506144616 | 51 | 118 | 2.0 | 10.0 | 0.00 | 0.00 | 0.00 | 63 | 1012.8 |
| 20260506144339 | 51 | 141 | 5.0 | 10.0 | 0.00 | 0.00 | 0.00 | 63 | 1012.8 |
| 20260506143613 | 51 | 140 | 6.0 | 9.0 | 0.00 | 0.00 | 0.00 | 62 | 1012.8 |
| 20260506143112 | 51 | 102 | 2.0 | 7.0 | 0.00 | 0.00 | 0.00 | 61 | 1012.8 |
| 20260506142610 | 51 | 62 | 2.0 | 10.0 | 0.00 | 0.00 | 0.00 | 60 | 1012.7 |
| 20260506142110 | 51 | 58 | 3.0 | 10.0 | 0.00 | 0.00 | 0.00 | 62 | 1012.9 |
| 20260506141608 | 52 | 97 | 3.0 | 10.0 | 0.00 | 0.00 | 0.00 | 62 | 1012.9 |
| 20260506140607 | 52 | 61 | 6.0 | 9.0 | 0.00 | 0.00 | 0.00 | 62 | 1012.8 |
| 20260506140107 | 52 | 137 | 6.0 | 10.0 | 0.00 | 0.00 | 0.00 | 62 | 1012.9 |
| 20260506135608 | 52 | 118 | 6.0 | 10.0 | 0.00 | 0.00 | 0.00 | 64 | 1012.9 |
| 20260506135106 | 52 | 54 | 3.0 | 9.0 | 0.00 | 0.00 | 0.00 | 60 | 1012.9 |
| 20260506134607 | 52 | 69 | 3.0 | 7.0 | 0.00 | 0.00 | 0.00 | 63 | 1012.9 |
| 20260506134105 | 51 | 68 | 5.0 | 7.0 | 0.00 | 0.00 | 0.00 | 63 | 1012.9 |
| 20260506133606 | 51 | 35 | 2.0 | 7.0 | 0.00 | 0.00 | 0.00 | 59 | 1012.9 |
| 20260506133105 | 51 | 69 | 1.0 | 10.0 | 0.00 | 0.00 | 0.00 | 62 | 1012.8 |
| 20260506132605 | 51 | 34 | 6.0 | 10.0 | 0.00 | 0.00 | 0.00 | 61 | 1013.0 |
| 20260506132106 | 51 | 52 | 4.0 | 10.0 | 0.00 | 0.00 | 0.00 | 62 | 1013.0 |
| 20260506131606 | 51 | 0 | 6.0 | 10.0 | 0.00 | 0.00 | 0.00 | 63 | 1013.1 |
| 20260506131105 | 51 | 89 | 4.0 | 9.0 | 0.00 | 0.00 | 0.00 | 63 | 1013.0 |
| 20260506130605 | 51 | 34 | 5.0 | 9.0 | 0.00 | 0.00 | 0.00 | 60 | 1013.0 |
| 20260506130107 | 51 | 41 | 4.0 | 11.0 | 0.00 | 0.00 | 0.00 | 63 | 1013.0 |
| 20260506125606 | 51 | 23 | 5.0 | 11.0 | 0.00 | 0.00 | 0.00 | 63 | 1013.1 |
| 20260506125106 | 51 | 62 | 4.0 | 11.0 | 0.00 | 0.00 | 0.00 | 64 | 1013.0 |
| 20260506124605 | 51 | 25 | 6.0 | 11.0 | 0.00 | 0.00 | 0.00 | 63 | 1012.9 |
| 20260506123604 | 51 | 42 | 6.0 | 11.0 | 0.00 | 0.00 | 0.00 | 62 | 1012.9 |
| 20260506123105 | 51 | 80 | 3.0 | 10.0 | 0.00 | 0.00 | 0.00 | 61 | 1013.0 |
| 20260506122105 | 51 | 135 | 5.0 | 7.0 | 0.00 | 0.00 | 0.00 | 63 | 1012.9 |
| 20260506121605 | 52 | 92 | 3.0 | 9.0 | 0.00 | 0.00 | 0.00 | 63 | 1013.0 |
| 20260506121105 | 52 | 94 | 5.0 | 9.0 | 0.00 | 0.00 | 0.00 | 62 | 1013.0 |
| 20260506120605 | 52 | 130 | 5.0 | 11.0 | 0.00 | 0.00 | 0.00 | 60 | 1013.0 |
| 20260506120324 | 52 | 111 | 6.0 | 11.0 | 0.00 | 0.00 | 0.00 | 60 | 1013.0 |
| 20260506115604 | 54 | 58 | 6.0 | 12.0 | 0.00 | 0.00 | 0.00 | 60 | 1013.1 |
| 20260506115105 | 53 | 68 | 3.0 | 12.0 | 0.00 | 0.00 | 0.00 | 59 | 1013.0 |
| 20260506114605 | 53 | 69 | 6.0 | 12.0 | 0.00 | 0.00 | 0.00 | 62 | 1013.2 |
| 20260506114106 | 52 | 121 | 7.0 | 12.0 | 0.00 | 0.00 | 0.00 | 64 | 1013.2 |
| 20260506113606 | 50 | 65 | 7.0 | 12.0 | 0.00 | 0.00 | 0.00 | 64 | 1013.2 |
| 20260506113329 | 50 | 47 | 5.0 | 12.0 | 0.00 | 0.00 | 0.00 | 64 | 1013.2 |
| 20260506112605 | 51 | 48 | 7.0 | 10.0 | 0.00 | 0.00 | 0.00 | 66 | 1013.2 |
| 20260506111602 | 51 | 37 | 6.0 | 10.0 | 0.00 | 0.00 | 0.00 | 62 | 1013.2 |
| 20260506111103 | 51 | 82 | 5.0 | 9.0 | 0.00 | 0.00 | 0.00 | 62 | 1013.1 |
| 20260506110058 | 52 | 44 | 6.0 | 14.0 | 0.00 | 0.00 | 0.00 | 61 | 1013.2 |
| 20260506105556 | 53 | 154 | 4.0 | 13.0 | 0.00 | 0.00 | 0.00 | 62 | 1013.2 |
| 20260506105318 | 52 | 131 | 8.0 | 13.0 | 0.00 | 0.00 | 0.00 | 63 | 1013.2 |
| 20260506104053 | 52 | 30 | 8.0 | 13.0 | 0.00 | 0.00 | 0.00 | 61 | 1013.3 |
| 20260506103819 | 53 | 0 | 6.0 | 12.0 | 0.00 | 0.00 | 0.00 | 65 | 1013.3 |
| 20260506103313 | 52 | 63 | 6.0 | 16.0 | 0.00 | 0.00 | 0.00 | 65 | 1013.3 |
| 20260506102552 | 51 | 63 | 9.0 | 16.0 | 0.00 | 0.00 | 0.00 | 64 | 1013.3 |
| 20260506102052 | 51 | 79 | 8.0 | 14.0 | 0.00 | 0.00 | 0.00 | 70 | 1013.3 |
| 20260506101551 | 49 | 56 | 5.0 | 14.0 | 0.00 | 0.00 | 0.00 | 69 | 1013.4 |
| 20260506101049 | 50 | 52 | 9.0 | 14.0 | 0.00 | 0.00 | 0.00 | 69 | 1013.3 |
| 20260506100549 | 50 | 0 | 5.0 | 13.0 | 0.00 | 0.00 | 0.00 | 69 | 1013.3 |
| 20260506095816 | 51 | 0 | 4.0 | 13.0 | 0.00 | 0.00 | 0.00 | 70 | 1013.3 |
| 20260506095047 | 51 | 103 | 6.0 | 13.0 | 0.00 | 0.00 | 0.00 | 68 | 1013.3 |
| 20260506094547 | 50 | 76 | 6.0 | 16.0 | 0.00 | 0.00 | 0.00 | 69 | 1013.4 |
| 20260506094046 | 51 | 78 | 7.0 | 16.0 | 0.00 | 0.00 | 0.00 | 69 | 1013.4 |
| 20260506093547 | 50 | 69 | 8.0 | 13.0 | 0.00 | 0.00 | 0.00 | 69 | 1013.5 |
| 20260506093047 | 49 | 56 | 9.0 | 16.0 | 0.00 | 0.00 | 0.00 | 70 | 1013.6 |
| 20260506092549 | 50 | 23 | 9.0 | 16.0 | 0.00 | 0.00 | 0.00 | 69 | 1013.5 |
| 20260506092309 | 49 | 121 | 8.0 | 15.0 | 0.00 | 0.00 | 0.00 | 73 | 1013.5 |
| 20260506091806 | 48 | 37 | 7.0 | 12.0 | 0.00 | 0.00 | 0.00 | 74 | 1013.5 |
| 20260506091046 | 48 | 44 | 8.0 | 14.0 | 0.00 | 0.00 | 0.00 | 73 | 1013.5 |
| 20260506090547 | 48 | 30 | 9.0 | 14.0 | 0.00 | 0.00 | 0.00 | 72 | 1013.5 |
| 20260506090046 | 49 | 0 | 8.0 | 15.0 | 0.00 | 0.00 | 0.00 | 73 | 1013.6 |
| 20260506085540 | 49 | 38 | 7.0 | 14.0 | 0.00 | 0.00 | 0.00 | 72 | 1013.6 |
| 20260506085039 | 48 | 27 | 8.0 | 13.0 | 0.00 | 0.00 | 0.00 | 71 | 1013.5 |
| 20260506084540 | 48 | 0 | 8.0 | 19.0 | 0.00 | 0.00 | 0.00 | 72 | 1013.5 |
| 20260506084040 | 48 | 11 | 11.0 | 19.0 | 0.00 | 0.00 | 0.00 | 72 | 1013.6 |
| 20260506083038 | 48 | 7 | 6.0 | 17.0 | 0.00 | 0.00 | 0.00 | 74 | 1013.5 |
| 20260506082752 | 48 | 14 | 10.0 | 17.0 | 0.00 | 0.00 | 0.00 | 75 | 1013.6 |
| 20260506082036 | 47 | 20 | 7.0 | 14.0 | 0.00 | 0.00 | 0.00 | 76 | 1013.6 |
| 20260506081756 | 47 | 78 | 9.0 | 15.0 | 0.00 | 0.00 | 0.00 | 76 | 1013.6 |
| 20260506081034 | 46 | 72 | 9.0 | 15.0 | 0.00 | 0.00 | 0.00 | 77 | 1013.6 |
| 20260506080535 | 46 | 0 | 7.0 | 14.0 | 0.00 | 0.00 | 0.00 | 77 | 1013.6 |
| 20260506071531 | 44 | 6 | 7.0 | 13.0 | 0.00 | 0.00 | 0.00 | 79 | 1013.4 |
| 20260506071031 | 43 | 37 | 6.0 | 13.0 | 0.00 | 0.00 | 0.00 | 80 | 1013.5 |
| 20260506070531 | 43 | 23 | 8.0 | 12.0 | 0.00 | 0.00 | 0.00 | 79 | 1013.5 |
| 20260506062025 | 42 | 347 | 5.0 | 7.0 | 0.00 | 0.00 | 0.00 | 81 | 1013.1 |
| 20260506061522 | 42 | 353 | 4.0 | 10.0 | 0.00 | 0.00 | 0.00 | 80 | 1013.1 |
| 20260506061241 | 41 | 0 | 5.0 | 10.0 | 0.00 | 0.00 | 0.00 | 81 | 1013.1 |
| 20260506051015 | 38 | 3 | 5.0 | 10.0 | 0.00 | 0.00 | 0.00 | 84 | 1013.2 |
| 20260506050515 | 38 | 0 | 5.0 | 10.0 | 0.00 | 0.00 | 0.00 | 84 | 1013.1 |
| 20260506045013 | 38 | 0 | 5.0 | 11.0 | 0.00 | 0.00 | 0.00 | 84 | 1013.1 |
| 20260506044513 | 38 | 0 | 5.0 | 11.0 | 0.00 | 0.00 | 0.00 | 84 | 1013.1 |
| 20260506044010 | 38 | 0 | 6.0 | 12.0 | 0.00 | 0.00 | 0.00 | 84 | 1013.1 |
| 20260506043511 | 37 | 14 | 7.0 | 12.0 | 0.00 | 0.00 | 0.00 | 85 | 1013.1 |
| 20260506043012 | 37 | 350 | 5.0 | 10.0 | 0.00 | 0.00 | 0.00 | 85 | 1013.1 |
| 20260506042509 | 37 | 0 | 4.0 | 10.0 | 0.00 | 0.00 | 0.00 | 85 | 1013.1 |
| 20260506042008 | 37 | 4 | 5.0 | 10.0 | 0.00 | 0.00 | 0.00 | 85 | 1013.1 |
| 20260506041509 | 37 | 0 | 3.0 | 7.0 | 0.00 | 0.00 | 0.00 | 85 | 1013.1 |
| 20260506041008 | 37 | 0 | 4.0 | 10.0 | 0.00 | 0.00 | 0.00 | 85 | 1013.1 |
| 20260506040509 | 37 | 0 | 5.0 | 10.0 | 0.00 | 0.00 | 0.00 | 85 | 1013.1 |
| 20260506040013 | 37 | 353 | 5.0 | 9.0 | 0.00 | 0.00 | 0.00 | 85 | 1013.1 |
| 20260506035504 | 37 | 0 | 5.0 | 10.0 | 0.00 | 0.00 | 0.00 | 85 | 1013.1 |
| 20260506035004 | 37 | 0 | 6.0 | 10.0 | 0.00 | 0.00 | 0.00 | 86 | 1013.0 |
| 20260506034503 | 37 | 1 | 4.0 | 10.0 | 0.00 | 0.00 | 0.00 | 86 | 1013.0 |
| 20260506034003 | 37 | 357 | 4.0 | 10.0 | 0.00 | 0.00 | 0.00 | 86 | 1013.1 |
| 20260506033501 | 38 | 355 | 5.0 | 10.0 | 0.00 | 0.00 | 0.00 | 86 | 1013.0 |
| 20260506033003 | 38 | 353 | 5.0 | 10.0 | 0.00 | 0.00 | 0.00 | 86 | 1013.1 |
| 20260506032501 | 38 | 354 | 4.0 | 9.0 | 0.00 | 0.00 | 0.00 | 86 | 1013.1 |
| 20260506032001 | 38 | 0 | 5.0 | 9.0 | 0.00 | 0.00 | 0.00 | 86 | 1013.2 |
| 20260506031503 | 38 | 354 | 4.0 | 9.0 | 0.00 | 0.00 | 0.00 | 85 | 1013.2 |
| 20260506031007 | 38 | 348 | 5.0 | 11.0 | 0.00 | 0.00 | 0.00 | 86 | 1013.2 |
| 20260506030505 | 38 | 340 | 5.0 | 11.0 | 0.00 | 0.00 | 0.00 | 86 | 1013.2 |
| 20260506030004 | 38 | 355 | 6.0 | 10.0 | 0.00 | 0.00 | 0.00 | 87 | 1013.3 |
| 20260506025501 | 38 | 0 | 5.0 | 10.0 | 0.00 | 0.00 | 0.00 | 87 | 1013.1 |
| 20260506024958 | 38 | 350 | 4.0 | 9.0 | 0.00 | 0.00 | 0.00 | 87 | 1013.1 |
| 20260506024456 | 38 | 338 | 5.0 | 9.0 | 0.00 | 0.00 | 0.00 | 87 | 1013.2 |
| 20260506023955 | 38 | 355 | 5.0 | 10.0 | 0.00 | 0.00 | 0.00 | 87 | 1013.2 |
| 20260506023455 | 38 | 350 | 4.0 | 10.0 | 0.00 | 0.00 | 0.00 | 87 | 1013.2 |
| 20260506022952 | 38 | 348 | 5.0 | 9.0 | 0.00 | 0.00 | 0.00 | 87 | 1013.3 |
| 20260506022453 | 38 | 350 | 4.0 | 10.0 | 0.00 | 0.00 | 0.00 | 87 | 1013.2 |
| 20260506021952 | 38 | 355 | 5.0 | 10.0 | 0.00 | 0.00 | 0.00 | 87 | 1013.2 |
| 20260506021451 | 39 | 345 | 4.0 | 9.0 | 0.00 | 0.00 | 0.00 | 88 | 1013.2 |
| 20260506020950 | 39 | 343 | 4.0 | 9.0 | 0.00 | 0.00 | 0.00 | 87 | 1013.3 |
| 20260506020707 | 39 | 354 | 4.0 | 7.0 | 0.00 | 0.00 | 0.00 | 87 | 1013.3 |
| 20260506015449 | 39 | 334 | 5.0 | 9.0 | 0.00 | 0.00 | 0.00 | 87 | 1013.2 |
| 20260506014948 | 39 | 350 | 4.0 | 10.0 | 0.00 | 0.00 | 0.00 | 87 | 1013.3 |
| 20260506014446 | 39 | 354 | 4.0 | 10.0 | 0.00 | 0.00 | 0.00 | 87 | 1013.4 |
| 20260506013948 | 39 | 345 | 5.0 | 9.0 | 0.00 | 0.00 | 0.00 | 87 | 1013.5 |
| 20260506013709 | 40 | 0 | 5.0 | 9.0 | 0.00 | 0.00 | 0.00 | 87 | 1013.4 |
| 20260506013205 | 40 | 0 | 4.0 | 9.0 | 0.00 | 0.00 | 0.00 | 87 | 1013.4 |
| 20260506012709 | 40 | 357 | 5.0 | 9.0 | 0.00 | 0.00 | 0.00 | 87 | 1013.4 |
| 20260506011945 | 40 | 0 | 6.0 | 9.0 | 0.00 | 0.00 | 0.00 | 87 | 1013.4 |
| 20260506011445 | 40 | 0 | 4.0 | 9.0 | 0.00 | 0.00 | 0.00 | 87 | 1013.6 |
| 20260506011210 | 40 | 0 | 5.0 | 9.0 | 0.00 | 0.00 | 0.00 | 87 | 1013.5 |
| 20260506010443 | 40 | 0 | 5.0 | 9.0 | 0.00 | 0.00 | 0.00 | 87 | 1013.6 |
| 20260506005940 | 40 | 0 | 6.0 | 9.0 | 0.00 | 0.00 | 0.00 | 87 | 1013.5 |
| 20260506005440 | 40 | 0 | 4.0 | 7.0 | 0.00 | 0.00 | 0.00 | 87 | 1013.5 |
| 20260506004939 | 40 | 0 | 4.0 | 7.0 | 0.00 | 0.00 | 0.00 | 87 | 1013.6 |
| 20260506003437 | 40 | 0 | 5.0 | 10.0 | 0.00 | 0.00 | 0.00 | 87 | 1013.6 |
| 20260506002936 | 41 | 11 | 2.0 | 7.0 | 0.00 | 0.00 | 0.00 | 87 | 1013.7 |
| 20260506002436 | 41 | 10 | 3.0 | 10.0 | 0.00 | 0.00 | 0.00 | 87 | 1013.8 |
| 20260506001937 | 41 | 1 | 4.0 | 10.0 | 0.00 | 0.00 | 0.00 | 87 | 1013.7 |
| 20260506001659 | 41 | 24 | 5.0 | 10.0 | 0.00 | 0.00 | 0.00 | 88 | 1013.7 |
| 20260506000938 | 41 | 4 | 6.0 | 9.0 | 0.00 | 0.00 | 0.00 | 88 | 1013.8 |
| 20260506000438 | 41 | 3 | 5.0 | 10.0 | 0.00 | 0.00 | 0.00 | 87 | 1013.8 |
| 20260505235936 | 41 | 0 | 5.0 | 10.0 | 0.00 | 0.00 | 0.00 | 87 | 1013.8 |
| 20260505235654 | 41 | 3 | 3.0 | 7.0 | 0.00 | 0.00 | 0.00 | 87 | 1013.8 |
| 20260505234936 | 42 | 14 | 4.0 | 7.0 | 0.00 | 0.00 | 0.00 | 87 | 1013.8 |
| 20260505234436 | 42 | 39 | 3.0 | 5.0 | 0.00 | 0.00 | 0.00 | 87 | 1013.8 |
| 20260505233935 | 42 | 41 | 3.0 | 6.0 | 0.00 | 0.00 | 0.00 | 86 | 1013.8 |
| 20260505233435 | 42 | 38 | 4.0 | 6.0 | 0.00 | 0.00 | 0.00 | 86 | 1013.8 |
| 20260505232936 | 42 | 42 | 3.0 | 6.0 | 0.00 | 0.00 | 0.00 | 86 | 1013.9 |
| 20260505231935 | 42 | 39 | 4.0 | 6.0 | 0.00 | 0.00 | 0.00 | 85 | 1014.0 |
| 20260505231652 | 43 | 48 | 3.0 | 7.0 | 0.00 | 0.00 | 0.00 | 85 | 1014.0 |
| 20260505230935 | 43 | 52 | 4.0 | 7.0 | 0.00 | 0.00 | 0.00 | 85 | 1014.0 |
| 20260505230436 | 43 | 52 | 3.0 | 10.0 | 0.00 | 0.00 | 0.00 | 85 | 1013.8 |
| 20260505230155 | 43 | 20 | 5.0 | 10.0 | 0.00 | 0.00 | 0.00 | 85 | 1014.0 |
| 20260505225434 | 43 | 25 | 5.0 | 9.0 | 0.00 | 0.00 | 0.00 | 85 | 1014.0 |
| 20260505224934 | 43 | 45 | 5.0 | 9.0 | 0.00 | 0.00 | 0.00 | 85 | 1014.0 |
| 20260505224435 | 43 | 4 | 6.0 | 9.0 | 0.00 | 0.00 | 0.00 | 85 | 1014.1 |
| 20260505224200 | 43 | 13 | 4.0 | 9.0 | 0.00 | 0.00 | 0.00 | 85 | 1014.1 |
| 20260505223435 | 43 | 1 | 5.0 | 10.0 | 0.00 | 0.00 | 0.00 | 84 | 1014.1 |
| 20260505222935 | 43 | 21 | 5.0 | 11.0 | 0.00 | 0.00 | 0.00 | 85 | 1014.0 |
| 20260505222658 | 44 | 17 | 6.0 | 11.0 | 0.00 | 0.00 | 0.00 | 85 | 1014.0 |
| 20260505222158 | 44 | 34 | 6.0 | 7.0 | 0.00 | 0.00 | 0.00 | 85 | 1014.1 |
| 20260505221434 | 44 | 14 | 5.0 | 7.0 | 0.00 | 0.00 | 0.00 | 84 | 1014.1 |
| 20260505220934 | 44 | 21 | 5.0 | 10.0 | 0.00 | 0.00 | 0.00 | 84 | 1014.0 |
| 20260505220433 | 44 | 27 | 5.0 | 11.0 | 0.00 | 0.00 | 0.00 | 84 | 1013.9 |
| 20260505215933 | 44 | 10 | 6.0 | 11.0 | 0.00 | 0.00 | 0.00 | 84 | 1013.9 |
| 20260505215434 | 44 | 3 | 6.0 | 14.0 | 0.00 | 0.00 | 0.00 | 84 | 1013.9 |
| 20260505215159 | 44 | 20 | 5.0 | 14.0 | 0.00 | 0.00 | 0.00 | 84 | 1013.9 |
| 20260505214433 | 44 | 0 | 5.0 | 11.0 | 0.00 | 0.00 | 0.00 | 83 | 1013.9 |
| 20260505213934 | 44 | 27 | 6.0 | 11.0 | 0.00 | 0.00 | 0.00 | 84 | 1013.9 |
| 20260505213659 | 44 | 20 | 6.0 | 13.0 | 0.00 | 0.00 | 0.00 | 84 | 1013.8 |
| 20260505212933 | 44 | 20 | 6.0 | 13.0 | 0.00 | 0.00 | 0.00 | 84 | 1013.8 |
| 20260505212654 | 44 | 107 | 6.0 | 12.0 | 0.00 | 0.00 | 0.00 | 84 | 1013.8 |
| 20260505211932 | 44 | 56 | 6.0 | 12.0 | 0.00 | 0.00 | 0.00 | 84 | 1013.8 |